パンスターズ彗星

P/2014 W4 ( PanSTARRS )

English version
Home page
Updated on March 3, 2018

---------------------------------------------------------------------

・ プロフィール

発見日 2014年11月18日
発見光度 20.7等
発見者 Pan-STARRS 1 telescope (Haleakala)

・ 写真集

・ 軌道要素

Epoch 2016 Jan. 13.0 TT = JDT 2457400.5
T 2015 Dec. 29.68618 TT                                 MPCW
q   4.2610352            (2000.0)            P               Q
n   0.05830273     Peri.   67.43564     -0.16924831     -0.97487270
a   6.5868354      Node    33.35279     +0.77949657     -0.22233571
e   0.3530983      Incl.   15.27441     +0.60310870     +0.01378585
P  16.91
From 91 observations 2014 Oct. 25-2017 Mar. 30, mean residual 0".3.

・ 光度変化

        m1 = 10.5 + 5 logΔ + 10.0 log r

---------------------------------------------------------------------

軌道要素はM.P.E.C. 2017-N58に掲載されたものです。
光度グラフはComet for Windowsで作成したものです。

---------------------------------------------------------------------

Copyright(C) Seiichi Yoshida (comet@aerith.net). All rights reserved.